Location: ?????
(32.7281°N, 34.9563°E)
Time: 01:35:05
(UTC+00:00)

Cosmos 2227 Rocket - Pass Details

Date: 29 October 2020
Orbit: 839 x 845 km, 71.0° (Epoch: 25 November)

Event Time Altitude Azimuth Distance (km) Brightness Sun altitude
Rises 15:13:21 0° 352° (N) 3,402 5.3 -5.2°
Reaches altitude 10° 15:16:10 10° 4° (N) 2,465 4.5 -5.8°
Maximum altitude 15:20:56 27° 62° (ENE) 1,556 3.1 -6.8°
Drops below altitude 10° 15:25:41 10° 119° (ESE) 2,458 4.2 -7.8°
Sets 15:28:29 0° 131° (SE) 3,390 5.0 -8.3°
